Winnemucca, NV

11:17 AM PDT on May 23, 2017 (GMT -0700)
Winnemucca Municipal

Weather History for KWMC - September, 2012

Change the Weather History Date:

Wednesday, September 12, 2012

  Actual Average Record
Temperature  
Mean Temperature 59 °F 62 °F  
Max Temperature 83 °F 83 °F 96 °F (1953)
Min Temperature 34 °F 41 °F 25 °F (1974)
Degree Days  
Heating Degree Days 6 5  
Month to date heating degree days 15 38  
Since 1 July heating degree days 15 68  
Cooling Degree Days 0 1  
Month to date cooling degree days 35 22  
Year to date cooling degree days 681 532  
Growing Degree Days 8 (Base 50)    
Moisture  
Dew Point 9 °F    
Average Humidity 26    
Maximum Humidity 47    
Minimum Humidity 4    
Precipitation  
Precipitation 0.00 in 0.01 in 0.30 in (1906)
Month to date precipitation 0.01 0.13  
Year to date precipitation 3.39 5.49  
Snow  
Snow 0.00 in 0.00 in 0.00 in (1877)
Month to date snowfall 0.0 0.0  
Since 1 July snowfall 0.0 0.0  
Since 1 September snowfall 0.0 0.0  
Snow Depth 0.00 in    
Sea Level Pressure  
Sea Level Pressure 30.18 in    
Wind  
Wind Speed 6 mph (North)    
Max Wind Speed 16 mph    
Max Gust Speed 18 mph    
Visibility 10 miles    
Events      
T = Trace of Precipitation, MM = Missing Value Source: NWS Daily Summary

Daily Weather History Graph

Daily Weather History Graph

Search for Another Location

Airport or City:

Trip Planner

Search our weather history database for the weather conditions in past years. The results will help you decide how hot, cold, wet, or windy it might be!

Date:

Astronomy

Sep. 12, 2012 Rise Set
Actual Time 6:29 AM PDT 7:04 PM PDT
Civil Twilight 6:01 AM PDT 7:31 PM PDT
Nautical Twilight 5:29 AM PDT 8:04 PM PDT
Astronomical Twilight 4:55 AM PDT 8:38 PM PDT
Moon 2:49 AM PDT (9/12) 4:55 PM PDT (9/12)
Length of Visible Light 13h 30m
Length of Day
12h 34m
Waning Crescent, 13% of the Moon is Illuminated
Sep 12
Waning Crescent
Sep 15
New
Sep 22
First Quarter
Sep 29
Full
Oct 8
Last Quarter

Hourly Weather History & Observations

Time (PDT) Temp. Windchill Dew Point Humidity Pressure Visibility Wind Dir Wind Speed Gust Speed Precip Events Conditions
12:56 AM 53.1 °F - 10.9 °F 19% 30.07 in 10.0 mi NNW 4.6 mph - N/A   Clear
1:56 AM 54.0 °F - 9.0 °F 17% 30.08 in 10.0 mi North 5.8 mph - N/A   Clear
2:56 AM 50.0 °F - 10.0 °F 20% 30.09 in 10.0 mi NW 6.9 mph - N/A   Clear
4:56 AM 44.1 °F - 10.0 °F 25% 30.14 in 10.0 mi Calm Calm - N/A   Clear
5:56 AM 35.1 °F 27.9 °F 17.1 °F 48% 30.17 in 10.0 mi SE 9.2 mph - N/A   Clear
6:56 AM 35.1 °F - 12.9 °F 40% 30.21 in 10.0 mi Calm Calm - N/A   Clear
7:56 AM 46.0 °F - 17.1 °F 31% 30.23 in 10.0 mi Calm Calm - N/A   Clear
8:56 AM 60.1 °F - 12.0 °F 15% 30.20 in 10.0 mi NE 11.5 mph - N/A   Clear
9:56 AM 64.9 °F - 14.0 °F 14% 30.21 in 10.0 mi NE 12.7 mph - N/A   Clear
10:56 AM 71.1 °F - 12.9 °F 11% 30.20 in 10.0 mi NE 12.7 mph - N/A   Clear
11:56 AM 75.0 °F - 12.0 °F 9% 30.19 in 10.0 mi NNE 10.4 mph 18.4 mph N/A   Clear
12:56 PM 78.1 °F - 8.1 °F 7% 30.18 in 10.0 mi NE 8.1 mph - N/A   Clear
1:56 PM 80.1 °F - 7.0 °F 6% 30.17 in 10.0 mi North - - N/A   Clear
2:56 PM 81.0 °F - 3.0 °F 5% 30.15 in 10.0 mi NNE 8.1 mph - N/A   Clear
3:56 PM 82.9 °F - 1.9 °F 4% 30.14 in 10.0 mi North 8.1 mph - N/A   Clear
4:56 PM 82.0 °F - 1.9 °F 5% 30.15 in 10.0 mi NNE 8.1 mph - N/A   Clear
5:56 PM 81.0 °F - 5.0 °F 5% 30.17 in 10.0 mi North 8.1 mph - N/A   Clear
6:56 PM 75.0 °F - 8.1 °F 8% 30.18 in 10.0 mi North 5.8 mph - N/A   Clear
7:56 PM 55.9 °F - 8.1 °F 15% 30.22 in 10.0 mi Calm Calm - N/A   Clear
8:56 PM 50.0 °F - 6.1 °F 17% 30.23 in 10.0 mi West 3.5 mph - N/A   Clear
9:56 PM 46.0 °F - 9.0 °F 22% 30.23 in 10.0 mi Calm Calm - N/A   Clear
10:56 PM 45.0 °F 42.6 °F 5.0 °F 19% 30.24 in 10.0 mi West 4.6 mph - N/A   Clear
11:56 PM 42.1 °F - 14.0 °F 32% 30.25 in 10.0 mi Calm Calm - N/A   Clear